Miscellaneous Local Product
Issued by NWS Hastings, NE

Home | Current Version | Previous Version | Text Only | Print | Product List | Glossary Off
Versions: 1 2 3 4 5 6 7 8 9 10 11 12 13 14 15 16 17 18 19 20 21 22 23 24 25 26 27 28 29 30 31 32 33 34 35 36 37 38 39 40 41 42 43 44 45 46 47 48 49 50

000
AXUS43 KGID 300102
MISGRI

GID CWA HOURLY WEATHER ROUNDUP
NATIONAL WEATHER SERVICE HASTINGS NE
800 PM CDT SUN MAY 29 2016

NOTE: "FAIR" INDICATES FEW OR NO CLOUDS BELOW 12,000 FEET WITH NO
SIGNIFICANT WEATHER AND/OR OBSTRUCTIONS TO VISIBILITY.

...SOUTH CENTRAL NEBRASKA...

CITY           SKY/WX    TMP DP  RH WIND       PRES   REMARKS
GRAND ISLAND   CLOUDY    73  53  49 S16       30.00R
HASTINGS       CLOUDY    73  54  51 SE13      30.00S
KEARNEY        CLOUDY    72  57  60 S6        29.99S
ORD            CLOUDY    78  56  46 SE8       29.96F
YORK           CLOUDY    75  57  53 SW9       30.02R
AURORA         CLOUDY    74  57  56 S15       30.01R THUNDER
LEXINGTON      CLOUDY    72  55  55 S13       29.96F
HOLDREGE       CLOUDY    72  56  57 S8        29.97F
HEBRON         CLOUDY    75  57  53 S8        30.01S

...NEBRASKA PANHANDLE...

CITY           SKY/WX    TMP DP  RH WIND       PRES   REMARKS
CHADRON        CLOUDY    76  48  37 N7        29.95F
ALLIANCE       CLOUDY    72  50  45 SW7       29.99R
SCOTTSBLUFF    CLOUDY    73  42  32 S8        29.99F
SIDNEY         CLOUDY    68  51  54 E6        30.02S

...WESTERN AND NORTH CENTRAL NEBRASKA...

CITY           SKY/WX    TMP DP  RH WIND       PRES   REMARKS
VALENTINE      CLOUDY    77  52  41 SE14      29.95F
AINSWORTH      SUNNY     74  57  54 E13       29.98R
ONEILL         CLEAR     77  55  46 E9        30.00S
BROKEN BOW     CLOUDY    76  58  53 SE12      29.98S
IMPERIAL       CLOUDY    63  54  72 S9        30.01R THUNDER
NORTH PLATTE   TSTM      64  58  80 SE9       30.02R
MCCOOK         LGT RAIN  67  56  67 NE6       30.03R

...EASTERN NEBRASKA...

CITY           SKY/WX    TMP DP  RH WIND       PRES   REMARKS
NORFOLK        CLEAR     77  57  50 E6        29.99R
SO SIOUX CITY  CLEAR     79  57  46 NE6       29.99R
TEKAMAH          N/A    N/A N/A N/A MISG      29.97S
COLUMBUS       CLOUDY    79  55  44 E5        30.00R
ALBION         CLEAR     78  52  40 SE8       29.99S
OMAHA EPPLEY   CLOUDY    80  63  55 E6        29.98R
OFFUTT AFB     CLOUDY    78  65  65 E2        29.98R
MILLARD        CLOUDY    80  61  52 CALM      29.98S
LINCOLN        CLOUDY    79  61  53 SE3       29.99S
NEBRASKA CITY  CLOUDY    79  57  47 SW7       30.00R
BEATRICE       CLOUDY    77  59  55 S12       30.01R
FALLS CITY     PTCLDY    80  60  50 S10       30.00S

...NORTHERN KANSAS...

CITY           SKY/WX    TMP DP  RH WIND       PRES   REMARKS
GOODLAND       LGT RAIN  59  53  80 S23G35    30.07R
HILL CITY      CLOUDY    68  50  52 S20G28    29.99F
NORTON         CLEAR     72  39  30 CALM      30.00S
PHILLIPSBURG   CLEAR     73  46  38 S13       29.96F
SMITH CENTER   CLEAR     70  61  73 S14       29.99S
BELOIT         CLEAR     55  39  54 SE9G17    29.98S
HAYS           CLOUDY    72  48  43 W16G23    30.03R
RUSSELL        TSTM      64  57  78 NE25G37   30.04R
CONCORDIA      CLOUDY    70  57  63 S9        30.00F
SALINA         CLOUDY    74  63  68 S10       30.00F
TOPEKA         MOCLDY    77  65  66 SE6       30.01F



USA.gov is the U.S. government's official web portal to all federal, state and local government web resources and services.